Tenerife, Spain

12:03 PM WET on December 12, 2018 (GMT +0000)
Tenerife

Weather History for GCXO - September, 2018

Change the Weather History Date:

Friday, September 14, 2018

  Actual Average Record
Temperature  
Mean Temperature 75 °F -  
Max Temperature 82 °F 72 °F 93 °F (2000)
Min Temperature 68 °F 60 °F 57 °F (2007)
Cooling Degree Days 10    
Growing Degree Days 25 (Base 50)    
Moisture  
Dew Point 65 °F    
Average Humidity 73    
Maximum Humidity 88    
Minimum Humidity 56    
Precipitation  
Precipitation 0.00 in - - ()
Sea Level Pressure  
Sea Level Pressure 30.13 in    
Wind  
Wind Speed 6 mph ()    
Max Wind Speed 10 mph    
Max Gust Speed -    
Visibility 6.8 miles    
Events Fog    
Averages and records for this station are not official NWS values.
T = Trace of Precipitation, MM = Missing Value Source: Averaged Metar Reports

Daily Weather History Graph

Daily Weather History Graph

Search for Another Location

Airport or City:

Astronomy

Sep. 14, 2018 Rise Set
Actual Time 7:49 AM WEST 8:11 PM WEST
Civil Twilight 7:26 AM WEST 8:35 PM WEST
Nautical Twilight 6:58 AM WEST 9:02 PM WEST
Astronomical Twilight 6:30 AM WEST 9:30 PM WEST
Moon 12:30 PM WEST (9/14) 11:46 PM WEST (9/14)
Length of Visible Light 13h 09m
Length of Day
12h 21m
Waxing Crescent, 26% of the Moon is Illuminated
Sep 14
Waxing Crescent
Sep 17
First Quarter
Sep 25
Full
Oct 2
Last Quarter
Oct 9
New

Hourly Weather History & Observations

Time (WEST) Temp. Heat Index Dew Point Humidity Pressure Visibility Wind Dir Wind Speed Gust Speed Precip Events Conditions
1:00 AM 73.4 °F - 62.6 °F 69% 30.15 in 5.6 mi WNW 8.1 mph - N/A   Scattered Clouds
1:30 AM 73.4 °F - 64.4 °F 73% 30.12 in 5.6 mi West 9.2 mph - N/A   Unknown
2:00 AM 71.6 °F - 62.6 °F 73% 30.12 in 5.6 mi West 9.2 mph - N/A   Unknown
2:30 AM 73.4 °F - 62.6 °F 69% 30.12 in 5.6 mi West 8.1 mph - N/A   Unknown
3:00 AM 73.4 °F - 62.6 °F 69% 30.12 in 5.0 mi West 8.1 mph - N/A   Unknown
3:30 AM 73.4 °F - 62.6 °F 69% 30.12 in 5.0 mi West 5.8 mph - N/A   Unknown
4:00 AM 71 °F - 64 °F 72% 30.03 in 6 mi SE 2.3 mph - -  
4:00 AM 71.6 °F - 62.6 °F 73% 30.09 in 6.2 mi Variable 1.2 mph - N/A   Unknown
4:30 AM 69.8 °F - 64.4 °F 83% 30.09 in 6.2 mi South 4.6 mph - N/A   Unknown
5:00 AM 69.8 °F - 62.6 °F 78% 30.09 in 6.2 mi SSE 2.3 mph - N/A   Unknown
5:30 AM 68.0 °F - 62.6 °F 83% 30.09 in 6.2 mi South 4.6 mph - N/A   Unknown
6:00 AM 68.0 °F - 62.6 °F 83% 30.09 in - SE 3.5 mph - N/A   Clear
6:30 AM 68.0 °F - 62.6 °F 83% 30.12 in - Variable 2.3 mph - N/A   Clear
7:00 AM 69 °F - 63 °F 75% 30.04 in 13 mi SE 5.8 mph - -   Clear
7:00 AM 68.0 °F - 62.6 °F 83% 30.12 in - SSE 4.6 mph - N/A   Clear
7:30 AM 68.0 °F - 62.6 °F 83% 30.12 in - SSE 4.6 mph - N/A   Clear
8:00 AM 68.0 °F - 62.6 °F 83% 30.12 in - SSE 3.5 mph - N/A   Clear
8:30 AM 68.0 °F - 62.6 °F 83% 30.15 in 6.2 mi SE 4.6 mph - N/A   Partly Cloudy
9:00 AM 69.8 °F - 66.2 °F 88% 30.15 in - ESE 4.6 mph - N/A   Clear
9:30 AM 71.6 °F - 62.6 °F 73% 30.15 in - Variable 2.3 mph - N/A   Clear
10:00 AM 75 °F - 63 °F 58% 30.06 in 13 mi East 5.8 mph - -   Scattered Clouds
10:00 AM 75.2 °F - 62.6 °F 65% 30.15 in - ESE 4.6 mph - N/A   Clear
10:30 AM 75.2 °F - 62.6 °F 65% 30.15 in 6.2 mi East 5.8 mph - N/A   Partly Cloudy
11:00 AM 77.0 °F - 62.6 °F 61% 30.18 in 6.2 mi ESE 6.9 mph - N/A   Partly Cloudy
11:30 AM 77.0 °F - 62.6 °F 61% 30.18 in 6.2 mi ESE 8.1 mph - N/A   Partly Cloudy
12:00 PM 78.8 °F - 62.6 °F 57% 30.18 in - ESE 6.9 mph - N/A   Clear
1:00 PM 78 °F - 65 °F 56% 30.07 in 16 mi East 10.4 mph - -   Scattered Clouds
1:00 PM 80.6 °F 83.2 °F 68.0 °F 65% 30.18 in - ESE 8.1 mph - N/A   Clear
1:30 PM 78.8 °F - 64.4 °F 61% 30.18 in 6.2 mi East 9.2 mph - N/A   Partly Cloudy
2:00 PM 77.0 °F - 64.4 °F 65% 30.18 in 6.2 mi ESE 8.1 mph - N/A   Partly Cloudy
2:30 PM 77.0 °F - 66.2 °F 69% 30.15 in 6.2 mi ESE 8.1 mph - N/A   Partly Cloudy
3:00 PM 80.6 °F 82.7 °F 66.2 °F 61% 30.15 in 6.2 mi East 6.9 mph - N/A   Partly Cloudy
3:30 PM 78.8 °F - 69.8 °F 74% 30.15 in 6.2 mi ESE 9.2 mph - N/A   Partly Cloudy
4:00 PM 78 °F - 69 °F 66% 30.04 in 8 mi East 6.9 mph - -   Scattered Clouds
4:00 PM 78.8 °F - 68.0 °F 69% 30.15 in 6.2 mi ESE 6.9 mph - N/A   Partly Cloudy
4:30 PM 77.0 °F - 68.0 °F 74% 30.15 in 6.2 mi ESE 5.8 mph - N/A   Partly Cloudy
5:00 PM 78.8 °F - 68.0 °F 69% 30.15 in 6.2 mi ESE 4.6 mph - N/A   Partly Cloudy
5:30 PM 78.8 °F - 66.2 °F 65% 30.12 in 6.2 mi NW 4.6 mph - N/A   Partly Cloudy
6:00 PM 78.8 °F - 66.2 °F 65% 30.12 in 6.2 mi NW 5.8 mph - N/A   Partly Cloudy
6:30 PM 75.2 °F - 68.0 °F 78% 30.15 in 6.2 mi ESE 3.5 mph - N/A   Partly Cloudy
7:00 PM 75 °F - 69 °F 75% 30.04 in 10 mi ESE 5.8 mph - -   Scattered Clouds
7:00 PM 75.2 °F - 66.2 °F 73% 30.15 in 6.2 mi ESE 4.6 mph - N/A   Partly Cloudy
7:30 PM 71.6 °F - 68.0 °F 88% 30.15 in 6.2 mi ESE 5.8 mph - N/A   Partly Cloudy
8:00 PM 71.6 °F - 68.0 °F 88% 30.15 in 6.2 mi Variable 1.2 mph - N/A   Partly Cloudy
8:30 PM 73.4 °F - 66.2 °F 78% 30.15 in 6.2 mi NW 4.6 mph - N/A Fog Unknown
9:00 PM 71.6 °F - 68.0 °F 88% 30.15 in - West 6.9 mph - N/A   Clear
9:30 PM 73.4 °F - 64.4 °F 73% 30.15 in 6.2 mi West 8.1 mph - N/A   Partly Cloudy
10:00 PM 71.6 °F - 66.2 °F 83% 30.18 in 6.2 mi West 8.1 mph - N/A   Partly Cloudy
10:30 PM 71.6 °F - 66.2 °F 83% 30.18 in 6.2 mi WNW 9.2 mph - N/A Fog Patches of Fog
11:00 PM 69.8 °F - 66.2 °F 88% 30.18 in - West 6.9 mph - N/A   Clear
11:30 PM 71.6 °F - 64.4 °F 78% 30.18 in 6.2 mi West 6.9 mph - N/A   Unknown